Meteo pe oră la Almoharin

Astăzi, 17 Ianuarie, Duminică

Timp Temperatura Precipitaţii Vânt Presiune Umiditate
00:00 +3°C° 0 mm 1 m/s 735 mmHg 79%
01:00 +3°C° 0 mm 1 m/s 734 mmHg 80%
02:00 +3°C° 0 mm 1 m/s 734 mmHg 80%
03:00 +3°C° 0 mm 1 m/s 734 mmHg 80%
04:00 +2°C° 0 mm 1 m/s 734 mmHg 80%
05:00 +2°C° 0 mm 1 m/s 734 mmHg 81%
06:00 +2°C° 0 mm 1 m/s 734 mmHg 82%
07:00 +3°C° 0 mm 1 m/s 734 mmHg 79%
08:00 +4°C° 0 mm 1 m/s 734 mmHg 76%
09:00 +4°C° 0 mm 0 m/s 734 mmHg 73%
10:00 +7°C° 0 mm 1 m/s 734 mmHg 66%
11:00 +9°C° 0 mm 1 m/s 734 mmHg 59%
12:00 +11°C° 0 mm 1 m/s 735 mmHg 53%
13:00 +12°C° 0 mm 1 m/s 734 mmHg 52%
14:00 +13°C° 0 mm 1 m/s 733 mmHg 51%
15:00 +13°C° 0 mm 1 m/s 733 mmHg 50%
16:00 +11°C° 0 mm 1 m/s 733 mmHg 58%
17:00 +9°C° 0 mm 1 m/s 733 mmHg 66%
18:00 +6°C° 0 mm 1 m/s 733 mmHg 75%
19:00 +6°C° 0 mm 1 m/s 733 mmHg 74%
20:00 +5°C° 0 mm 1 m/s 733 mmHg 74%
21:00 +5°C° 0 mm 1 m/s 733 mmHg 74%
22:00 +4°C° 0 mm 1 m/s 733 mmHg 74%
23:00 +4°C° 0 mm 1 m/s 733 mmHg 74%

Mâine, 18 Ianuarie, Luni

Timp Temperatura Precipitaţii Vânt Presiune Umiditate
00:00 +3°C° 0 mm 1 m/s 733 mmHg 74%
01:00 +3°C° 0 mm 1 m/s 733 mmHg 75%
02:00 +3°C° 0 mm 1 m/s 732 mmHg 75%
03:00 +2°C° 0 mm 1 m/s 732 mmHg 76%
04:00 +2°C° 0 mm 1 m/s 732 mmHg 76%
05:00 +2°C° 0 mm 1 m/s 732 mmHg 75%
06:00 +2°C° 0 mm 1 m/s 732 mmHg 75%
07:00 +3°C° 0 mm 1 m/s 732 mmHg 72%
08:00 +4°C° 0 mm 1 m/s 732 mmHg 68%
09:00 +5°C° 0 mm 1 m/s 732 mmHg 65%
10:00 +7°C° 0 mm 1 m/s 733 mmHg 59%
11:00 +9°C° 0 mm 1 m/s 733 mmHg 53%
12:00 +12°C° 0 mm 1 m/s 733 mmHg 47%
13:00 +12°C° 0 mm 1 m/s 732 mmHg 48%
14:00 +13°C° 0 mm 1 m/s 731 mmHg 48%
15:00 +14°C° 0 mm 1 m/s 731 mmHg 49%
16:00 +11°C° 0 mm 1 m/s 731 mmHg 58%
17:00 +9°C° 0 mm 1 m/s 731 mmHg 67%
18:00 +6°C° 0 mm 0 m/s 731 mmHg 75%
19:00 +6°C° 0 mm 1 m/s 731 mmHg 76%
20:00 +6°C° 0 mm 1 m/s 731 mmHg 77%
21:00 +5°C° 0 mm 1 m/s 731 mmHg 79%
22:00 +5°C° 0 mm 1 m/s 732 mmHg 80%
23:00 +5°C° 0 mm 1 m/s 732 mmHg 81%

Poimâine, 19 Ianuarie, Marţi

Timp Temperatura Precipitaţii Vânt Presiune Umiditate
00:00 +4°C° 0 mm 1 m/s 732 mmHg 82%
01:00 +4°C° 0 mm 1 m/s 731 mmHg 83%
02:00 +4°C° 0 mm 1 m/s 731 mmHg 85%
03:00 +3°C° 0 mm 1 m/s 731 mmHg 86%
04:00 +3°C° 0 mm 1 m/s 730 mmHg 87%
05:00 +3°C° 0 mm 1 m/s 730 mmHg 88%
06:00 +3°C° 0 mm 1 m/s 730 mmHg 89%
07:00 +3°C° 0 mm 1 m/s 730 mmHg 87%
08:00 +4°C° 0 mm 1 m/s 730 mmHg 85%
09:00 +5°C° 0 mm 1 m/s 730 mmHg 83%
10:00 +7°C° 0 mm 1 m/s 730 mmHg 79%
11:00 +9°C° 0 mm 1 m/s 730 mmHg 75%
12:00 +10°C° 0 mm 1 m/s 730 mmHg 71%
13:00 +11°C° 0 mm 1 m/s 729 mmHg 71%
14:00 +11°C° 0 mm 1 m/s 729 mmHg 72%
15:00 +10°C° 0 mm 2 m/s 728 mmHg 72%
16:00 +10°C° 0 mm 2 m/s 728 mmHg 74%
17:00 +10°C° 0 mm 1 m/s 728 mmHg 77%
18:00 +9°C° 0 mm 1 m/s 727 mmHg 80%
19:00 +8°C° 0 mm 2 m/s 727 mmHg 81%
20:00 +8°C° 0 mm 2 m/s 727 mmHg 81%
21:00 +8°C° 0 mm 2 m/s 727 mmHg 82%
22:00 +8°C° 0 mm 2 m/s 727 mmHg 85%
23:00 +7°C° 0 mm 2 m/s 726 mmHg 88%

20 Ianuarie, Miercuri

Timp Temperatura Precipitaţii Vânt Presiune Umiditate
00:00 +7°C° 0 mm 3 m/s 726 mmHg 90%
01:00 +7°C° 0 mm 3 m/s 725 mmHg 90%
02:00 +7°C° 0 mm 3 m/s 724 mmHg 91%
03:00 +7°C° 0 mm 3 m/s 723 mmHg 91%
04:00 +8°C° 0.1 mm 3 m/s 723 mmHg 90%
05:00 +8°C° 0.1 mm 3 m/s 722 mmHg 90%
06:00 +7°C° 0.1 mm 4 m/s 721 mmHg 90%
07:00 +7°C° 1.9 mm 4 m/s 720 mmHg 91%
08:00 +8°C° 1.9 mm 5 m/s 720 mmHg 92%
09:00 +8°C° 1.9 mm 5 m/s 720 mmHg 94%
10:00 +9°C° 0.4 mm 6 m/s 719 mmHg 89%
11:00 +10°C° 0.4 mm 7 m/s 719 mmHg 84%
12:00 +11°C° 0.4 mm 8 m/s 719 mmHg 79%
13:00 +11°C° 0.4 mm 8 m/s 719 mmHg 80%
14:00 +11°C° 0.4 mm 7 m/s 719 mmHg 81%
15:00 +11°C° 0.4 mm 7 m/s 718 mmHg 81%
16:00 +10°C° 0.3 mm 6 m/s 718 mmHg 85%
17:00 +9°C° 0.3 mm 6 m/s 719 mmHg 88%
18:00 +9°C° 0.3 mm 5 m/s 719 mmHg 91%
19:00 +9°C° 1 mm 5 m/s 719 mmHg 91%
20:00 +9°C° 1 mm 6 m/s 720 mmHg 92%
21:00 +9°C° 1 mm 6 m/s 721 mmHg 93%
22:00 +9°C° 0.2 mm 6 m/s 721 mmHg 93%
23:00 +9°C° 0.2 mm 5 m/s 721 mmHg 93%

21 Ianuarie, Joi

Timp Temperatura Precipitaţii Vânt Presiune Umiditate
00:00 +9°C° 0.2 mm 5 m/s 722 mmHg 94%
01:00 +9°C° 0.1 mm 5 m/s 722 mmHg 94%
02:00 +9°C° 0.1 mm 5 m/s 723 mmHg 94%
03:00 +9°C° 0.1 mm 5 m/s 723 mmHg 94%
04:00 +9°C° 0.1 mm 5 m/s 723 mmHg 94%
05:00 +9°C° 0.1 mm 5 m/s 723 mmHg 94%
06:00 +10°C° 0.1 mm 4 m/s 724 mmHg 95%
07:00 +9°C° 0.1 mm 5 m/s 724 mmHg 94%
08:00 +9°C° 0.1 mm 5 m/s 724 mmHg 93%
09:00 +9°C° 0.1 mm 5 m/s 724 mmHg 92%
10:00 +10°C° 0.2 mm 5 m/s 724 mmHg 90%
11:00 +10°C° 0.2 mm 6 m/s 724 mmHg 88%
12:00 +10°C° 0.2 mm 7 m/s 724 mmHg 86%
13:00 +10°C° 0.2 mm 7 m/s 723 mmHg 87%
14:00 +10°C° 0.2 mm 6 m/s 723 mmHg 88%
15:00 +10°C° 0.2 mm 6 m/s 722 mmHg 89%
16:00 +10°C° 1.3 mm 7 m/s 722 mmHg 91%
17:00 +10°C° 1.3 mm 7 m/s 722 mmHg 92%
18:00 +10°C° 1.3 mm 7 m/s 722 mmHg 94%
19:00 +10°C° 0.4 mm 6 m/s 722 mmHg 94%
20:00 +10°C° 0.4 mm 6 m/s 722 mmHg 94%
21:00 +10°C° 0.4 mm 5 m/s 723 mmHg 94%
22:00 +10°C° 0 mm 5 m/s 723 mmHg 95%
23:00 +10°C° 0 mm 4 m/s 723 mmHg 96%

22 Ianuarie, Vineri

Timp Temperatura Precipitaţii Vânt Presiune Umiditate
00:00 +10°C° 0 mm 4 m/s 723 mmHg 97%
01:00 +10°C° 0.2 mm 4 m/s 723 mmHg 96%
02:00 +9°C° 0.2 mm 5 m/s 723 mmHg 95%
03:00 +9°C° 0.2 mm 5 m/s 723 mmHg 95%
04:00 +9°C° 0.3 mm 5 m/s 723 mmHg 94%
05:00 +9°C° 0.3 mm 5 m/s 723 mmHg 94%
06:00 +8°C° 0.3 mm 5 m/s 723 mmHg 93%
07:00 +8°C° 0.3 mm 6 m/s 723 mmHg 92%
08:00 +8°C° 0.3 mm 6 m/s 724 mmHg 91%
09:00 +8°C° 0.3 mm 6 m/s 724 mmHg 90%
10:00 +9°C° 0.3 mm 7 m/s 725 mmHg 85%
11:00 +9°C° 0.3 mm 8 m/s 725 mmHg 80%
12:00 +10°C° 0.3 mm 8 m/s 725 mmHg 76%
13:00 +9°C° 0.3 mm 8 m/s 725 mmHg 77%
14:00 +9°C° 0.3 mm 7 m/s 726 mmHg 78%
15:00 +8°C° 0.3 mm 6 m/s 726 mmHg 80%
16:00 +7°C° 0 mm 5 m/s 726 mmHg 83%
17:00 +7°C° 0 mm 4 m/s 727 mmHg 86%
18:00 +7°C° 0 mm 3 m/s 727 mmHg 88%
19:00 +5°C° 0 mm 3 m/s 728 mmHg 91%
20:00 +5°C° 0 mm 3 m/s 729 mmHg 93%
21:00 +4°C° 0 mm 3 m/s 730 mmHg 95%
22:00 +5°C° 0 mm 2 m/s 730 mmHg 95%
23:00 +4°C° 0 mm 2 m/s 730 mmHg 96%
Arată mai mult

Formular de consimțământ

Meteoprog și furnizorii noștri de servicii pot stoca și accesa date personale, precum cookies, identificatori de dispozitiv sau alte tehnologii similare pe dispozitivul dumneavoastră și procesa astfel de date pentru a personaliza conținutul și reclamele, dar și pentru a oferi caracteristici de social media și pentru a analiza traficul.

  • Stocarea și/sau accesarea informațiilor pe dispozitivul dumneavoastră

    Cookies, identificatori de dispozitiv sau alte informații pot fi stocate sau accesate pe dispozitiv în scopurile indicate mai sus.

  • Reclame și conținut personalizat, evaluarea reclamelor și a conținutului, informații despre audiențe și dezvoltarea produselor

    Reclamele și conținutul pot fi personalizate pe baza unui profil. Pot fi adăugate date suplimentare pentru a personaliza mai bine reclamele și conținutul. Performanța reclamelor și conținutului poate fi măsurată. Pot fi obținute informații despre utilizatorii care au văzut reclamele și conținutul. Aceste date pot fi utilizate pentru a dezvolta sau îmbunătăți experiența utilizatorilor, sistemele și software-ul.

Dând clic pe ‘Sunt de acord’, permiteți utilizarea cookie-urilor menționate, a identificatorilor de dispozitiv, balizelor web sau altor tehnologii similare. Setările pot fi modificate din browser-ul dispozitivului dumneavoastră.

În anumite scopuri, interesele legitime pot prima asupra consimțământului. Puteți citi mai multe informații în acest sens în Politica privind Confidențialitatea Datelor și Cookie.